Slayton, MN

11:12 AM CDT on July 27, 2017 (GMT -0500)
Slayton

Weather History for KDVP - January, 2014

Change the Weather History Date:

Friday, January 10, 2014

  Actual Average (KOTG) Record (KOTG)
Temperature  
Mean Temperature 26 °F -  
Max Temperature 30 °F 21 °F 53 °F (2012)
Min Temperature 23 °F 6 °F -28 °F (1982)
Degree Days  
Heating Degree Days 38    
Moisture  
Dew Point 27 °F    
Average Humidity 98    
Maximum Humidity 100    
Minimum Humidity 80    
Precipitation  
Precipitation 0.00 in - - ()
Sea Level Pressure  
Sea Level Pressure 29.58 in    
Wind  
Wind Speed 19 mph (SW)    
Max Wind Speed 33 mph    
Max Gust Speed 39 mph    
Visibility 3 miles    
Events      
Averages and records for this station are not official NWS values.
T = Trace of Precipitation, MM = Missing Value Source: NWS Daily Summary

Daily Weather History Graph

Daily Weather History Graph

Search for Another Location

Airport or City:

Trip Planner

Search our weather history database for the weather conditions in past years. The results will help you decide how hot, cold, wet, or windy it might be!

Date:

Astronomy

Jan. 10, 2014 Rise Set
Actual Time 7:56 AM CST 5:05 PM CST
Civil Twilight 7:24 AM CST 5:37 PM CST
Nautical Twilight 6:48 AM CST 6:13 PM CST
Astronomical Twilight 6:13 AM CST 6:48 PM CST
Moon 1:12 PM CST (1/10) 3:01 AM CST (1/10)
Length of Visible Light 10h 13m
Length of Day
9h 08m
Waxing Gibbous, 75% of the Moon is Illuminated
Jan 10
Waxing Gibbous
Jan 15
Full
Jan 23
Last Quarter
Jan 30
New
Feb 6
First Quarter

Hourly Weather History & Observations

Time (CST) Temp. Windchill Dew Point Humidity Pressure Visibility Wind Dir Wind Speed Gust Speed Precip Events Conditions
12:05 AM 23.0 °F 6.0 °F 23.0 °F 100% 29.76 in 1.0 mi SSW 27.6 mph 34.5 mph N/A   Overcast
12:25 AM 23.0 °F 5.1 °F 23.0 °F 100% 29.74 in 1.0 mi SSW 31.1 mph 38.0 mph N/A   Overcast
12:45 AM 24.8 °F 7.1 °F 23.0 °F 93% 29.74 in 0.8 mi SSW 33.4 mph 39.1 mph N/A   Overcast
1:25 AM 24.8 °F 7.3 °F 24.8 °F 100% 29.73 in 1.0 mi SSW 32.2 mph 38.0 mph N/A   Overcast
1:45 AM 24.8 °F 7.9 °F 24.8 °F 100% 29.72 in 0.8 mi SSW 29.9 mph 35.7 mph N/A   Overcast
2:45 AM 24.8 °F 9.3 °F 24.8 °F 100% 29.73 in 1.5 mi SSW 24.2 mph 32.2 mph N/A   Overcast
3:05 AM 26.6 °F 12.7 °F 24.8 °F 93% 29.72 in 2.5 mi SSW 20.7 mph 25.3 mph N/A   Overcast
3:25 AM 26.6 °F 13.4 °F 26.6 °F 100% 29.72 in 3.0 mi SSW 18.4 mph 26.5 mph N/A   Overcast
3:45 AM 26.6 °F 13.4 °F 26.6 °F 100% 29.70 in 4.0 mi SSW 18.4 mph 23.0 mph N/A   Overcast
4:05 AM 26.6 °F 15.2 °F 26.6 °F 100% 29.70 in 4.0 mi South 13.8 mph 21.9 mph N/A   Overcast
5:05 AM 26.6 °F 14.3 °F 26.6 °F 100% 29.67 in 2.0 mi South 16.1 mph 24.2 mph N/A   Overcast
5:25 AM 26.6 °F 13.1 °F 26.6 °F 100% 29.67 in 2.5 mi South 19.6 mph 25.3 mph N/A   Overcast
5:45 AM 26.6 °F 13.4 °F 26.6 °F 100% 29.66 in 2.5 mi SSW 18.4 mph 21.9 mph N/A   Overcast
6:05 AM 26.6 °F 13.4 °F 26.6 °F 100% 29.65 in 2.5 mi South 18.4 mph - N/A   Overcast
6:25 AM 26.6 °F 13.4 °F 26.6 °F 100% 29.64 in 3.0 mi South 18.4 mph - N/A   Overcast
6:45 AM 26.6 °F 14.3 °F 26.6 °F 100% 29.64 in 2.5 mi South 16.1 mph - N/A   Overcast
7:05 AM 26.6 °F 13.1 °F 26.6 °F 100% 29.63 in 2.0 mi SSW 19.6 mph - N/A   Overcast
7:25 AM 26.6 °F 13.4 °F 26.6 °F 100% 29.63 in 1.5 mi South 18.4 mph - N/A   Overcast
7:45 AM 26.6 °F 13.4 °F 26.6 °F 100% 29.62 in 1.5 mi South 18.4 mph 24.2 mph N/A   Overcast
8:05 AM 26.6 °F 13.1 °F 26.6 °F 100% 29.62 in 1.2 mi SSW 19.6 mph 23.0 mph N/A   Overcast
8:25 AM 26.6 °F 13.8 °F 26.6 °F 100% 29.62 in 1.2 mi SSW 17.3 mph - N/A   Overcast
8:45 AM 26.6 °F 14.7 °F 26.6 °F 100% 29.61 in 1.0 mi South 15.0 mph - N/A   Overcast
9:05 AM 26.6 °F 13.4 °F 26.6 °F 100% 29.61 in 1.0 mi SSW 18.4 mph - N/A   Overcast
9:25 AM 26.6 °F 12.7 °F 26.6 °F 100% 29.61 in 0.5 mi SSW 20.7 mph - N/A   Overcast
9:45 AM 26.6 °F 14.3 °F 26.6 °F 100% 29.61 in 0.8 mi South 16.1 mph - N/A   Overcast
10:05 AM 26.6 °F 15.2 °F 26.6 °F 100% 29.62 in 0.8 mi South 13.8 mph 21.9 mph N/A   Overcast
10:25 AM 28.4 °F 16.2 °F 28.4 °F 100% 29.62 in 0.5 mi South 17.3 mph 21.9 mph N/A   Overcast
10:45 AM 28.4 °F 16.6 °F 28.4 °F 100% 29.62 in 0.8 mi South 16.1 mph 20.7 mph N/A   Overcast
11:05 AM 28.4 °F 17.0 °F 28.4 °F 100% 29.62 in 0.5 mi SSW 15.0 mph - N/A   Overcast
11:25 AM 28.4 °F 17.5 °F 28.4 °F 100% 29.61 in 0.5 mi SSW 13.8 mph - N/A   Overcast
11:45 AM 28.4 °F 17.5 °F 28.4 °F 100% 29.59 in 0.5 mi SSW 13.8 mph 20.7 mph N/A   Overcast
12:05 PM 28.4 °F 17.0 °F 28.4 °F 100% 29.58 in 0.5 mi SSW 15.0 mph - N/A   Overcast
12:25 PM 28.4 °F 18.5 °F 28.4 °F 100% 29.56 in 0.2 mi SSW 11.5 mph - N/A   Overcast
12:45 PM 30.2 °F 18.9 °F 30.2 °F 100% 29.53 in 0.5 mi SSW 16.1 mph - N/A   Overcast
1:05 PM 30.2 °F 20.2 °F 30.2 °F 100% 29.53 in 0.5 mi SSW 12.7 mph - N/A   Overcast
1:25 PM 30.2 °F 18.9 °F 30.2 °F 100% 29.51 in 0.8 mi SSW 16.1 mph - N/A   Overcast
1:45 PM 30.2 °F 18.9 °F 30.2 °F 100% 29.52 in 1.0 mi SW 16.1 mph - N/A   Overcast
2:05 PM 30.2 °F 19.3 °F 30.2 °F 100% 29.51 in 1.2 mi WSW 15.0 mph - N/A   Overcast
2:25 PM 30.2 °F 20.2 °F 30.2 °F 100% 29.51 in 2.0 mi SW 12.7 mph - N/A   Overcast
2:45 PM 30.2 °F 20.8 °F 30.2 °F 100% 29.52 in 1.8 mi SW 11.5 mph - N/A   Overcast
3:05 PM 30.2 °F 19.8 °F 30.2 °F 100% 29.52 in 1.8 mi SW 13.8 mph - N/A   Overcast
3:25 PM 30.2 °F 21.3 °F 30.2 °F 100% 29.53 in 1.8 mi WSW 10.4 mph - N/A   Overcast
3:45 PM 30.2 °F 21.9 °F 30.2 °F 100% 29.52 in 1.5 mi SW 9.2 mph - N/A   Overcast
4:05 PM 30.2 °F 21.9 °F 30.2 °F 100% 29.52 in 1.5 mi SW 9.2 mph - N/A   Overcast
4:25 PM 30.2 °F 22.6 °F 30.2 °F 100% 29.53 in 1.2 mi SW 8.1 mph - N/A   Overcast
4:45 PM 30.2 °F 23.4 °F 30.2 °F 100% 29.53 in 1.2 mi SW 6.9 mph - N/A   Overcast
5:05 PM 30.2 °F 22.6 °F 30.2 °F 100% 29.53 in 3.0 mi WSW 8.1 mph - N/A   Overcast
5:25 PM 30.2 °F 22.6 °F 30.2 °F 100% 29.52 in 3.0 mi WSW 8.1 mph - N/A   Overcast
5:45 PM 30.2 °F 22.6 °F 30.2 °F 100% 29.52 in 3.0 mi West 8.1 mph - N/A   Overcast
6:05 PM 30.2 °F 23.4 °F 30.2 °F 100% 29.51 in 3.0 mi WSW 6.9 mph - N/A   Overcast
6:25 PM 30.2 °F 22.6 °F 30.2 °F 100% 29.51 in 3.0 mi West 8.1 mph - N/A   Overcast
6:45 PM 30.2 °F 22.6 °F 28.4 °F 93% 29.51 in 3.0 mi West 8.1 mph - N/A   Overcast
7:05 PM 28.4 °F 19.1 °F 28.4 °F 100% 29.51 in 3.0 mi West 10.4 mph - N/A   Overcast
7:25 PM 28.4 °F 19.7 °F 28.4 °F 100% 29.51 in 3.0 mi West 9.2 mph - N/A   Scattered Clouds
7:45 PM 28.4 °F 18.5 °F 28.4 °F 100% 29.51 in 3.0 mi West 11.5 mph - N/A   Clear
8:05 PM 28.4 °F 18.5 °F 26.6 °F 93% 29.50 in 4.0 mi West 11.5 mph - N/A   Clear
8:25 PM 26.6 °F 15.2 °F 26.6 °F 100% 29.50 in 4.0 mi West 13.8 mph - N/A   Clear
8:45 PM 26.6 °F 15.7 °F 26.6 °F 100% 29.50 in 5.0 mi West 12.7 mph - N/A   Clear
9:05 PM 26.6 °F 16.8 °F 24.8 °F 93% 29.50 in 5.0 mi West 10.4 mph - N/A   Clear
9:25 PM 26.6 °F 13.8 °F 24.8 °F 93% 29.50 in 5.0 mi West 17.3 mph - N/A   Clear
9:45 PM 24.8 °F 12.4 °F 24.8 °F 100% 29.50 in 7.0 mi West 15.0 mph - N/A   Clear
10:05 PM 24.8 °F 14.0 °F 23.0 °F 93% 29.50 in 7.0 mi WNW 11.5 mph - N/A   Clear
10:25 PM 24.8 °F 12.4 °F 23.0 °F 93% 29.51 in 10.0 mi West 15.0 mph - N/A   Clear
10:45 PM 24.8 °F 12.9 °F 21.2 °F 86% 29.51 in 10.0 mi West 13.8 mph - N/A   Clear
11:05 PM 23.0 °F 11.1 °F 21.2 °F 93% 29.50 in 10.0 mi West 12.7 mph - N/A   Clear
11:25 PM 26.6 °F 15.7 °F 21.2 °F 80% 29.51 in 10.0 mi West 12.7 mph - N/A   Clear
11:45 PM 24.8 °F 11.9 °F 21.2 °F 86% 29.51 in 10.0 mi West 16.1 mph - N/A   Clear